ONEWEB-0692, 61600

Orbit data source: Space-Track

ONEWEB-0692, 61600 is a payload satellite owned by Eut. One Web (UK) in LEO that was launched on Sun, 20 Oct 2024 UTC via an FALCON 9 launch vehicle from the Air Force Western Test Range (AFWTR). Payload-class satellites include a variety of spacecraft equipped with specific instruments for various scientific and technological missions. These include communications satellites like Starlink; space stations such as the ISS; scientific satellites like the Hubble; Earth observation satellites from companies like Planet Labs, Umbra, and HawkEye 360; GPS; miniature CubeSats for education and research; and military/defense satellites.

Loading next visibility...
Identifier
61600, 2024-188G
Orbit
LEO
Country
Flag of UKUK
Related business
Manufacturer
One Web
Mission
Operational Commercial Communications
Bus & Motor
ARROW, Unknown motor
Mass
148 kg wet, ~140 kg dry
Launch date (UTC)
2024-10-20 (1 year ago)
Launch vehicle
FALCON 9
Launch site
Air Force Western Test Range (AFWTR)
Object type
Payload
Rocket body
Debris
Shape & HBR
Trap Box + 2 Pan, 6.7 m
Radar Cross Section
3.464 m², Large (>1 m²)

Expand to show TLE details & history
Last TLE update: 15 hours ago

TLE from 15 hours ago
0 ONEWEB-0692
1 61600U 24188G   26035.53612792  .00000045  00000-0  90815-4 0  9993
2 61600  87.8813  47.4851 0002044 117.9937 242.1398 13.11418738 67083
Epoch: 2026-02-04T12:52Z
TLE epoch observation values (Epoch: 2026-02-04T12:52:01.452Z)
Latitude
-0°
Longitude
79.77775°
Altitude
1,221.291 km
Speed
7.243 km/s
True Right ascension
03h 09m 56s
True Declination
0° 00' 00"
Sunlit
Object was in daylight at epoch
Visualization orbit readout
Latitude
Unknown
Longitude
Unknown
Altitude
Unknown
Speed
Unknown
Apparent Right ascension
Unknown
Apparent Declination
Unknown
Sunlit
N/A
Visualization observer readout
Local Sidereal Time
06:09:08
Azimuth
Unknown
Elevation
Unknown
Doppler factor
Unknown
Orbital elements
Apogee altitude
1,216.346 km
Perigee altitude
1,213.242 km
Semi-major axis
7,592.931 km
Eccentricity
0.0002
Inclination
87.8813°
RAAN
47.4851°
Arg. of periapsis
117.9937°
True anomaly
242.11909°
Mean anomaly
242.1398°
Eccentric anomaly
242.12945°
Mean motion
3.28042 °/min
Orbital period
109.74 mins
BSTAR
0.000090815
Loading maneuver chart data...
Computing Atmospheric mass density...
Loading historical data...
Loading historical data...
Loading historical data...
Loading historical data...
Loading historical data...
Loading historical data...
Loading historical data...

Documentation

Showing up to 5 results
|